TAP04G SBCF-SBVT

Flight info

Callsign TAP04G
Flight time 0h 34m
Altitude 27000
Route EVPAD UZ35 KIGOK
Aircraft A320/M-SDE3FGHIRWY/LB1

Departure

Time 2026-04-26 13:29
Airport Tancredo Neves International Airport (SBCF)

Arrival

Time 2026-04-26 14:03
Airport Eurico de Aguiar Salles International Airport (SBVT)
Time Latitude Longitude Altitude Speed Heading
2026-04-26 13:12 -19.62872 -43.96978 2817 ft 0 kts 227°
2026-04-26 13:22 -19.62863 -43.96968 2816 ft 2 kts 243°
2026-04-26 13:22 -19.62861 -43.96951 2814 ft 2 kts 315°
2026-04-26 13:22 -19.62862 -43.96950 2815 ft 0 kts 319°
2026-04-26 13:25 -19.62845 -43.96964 2816 ft 8 kts 320°
2026-04-26 13:25 -19.62802 -43.97025 2810 ft 11 kts 284°
2026-04-26 13:26 -19.62831 -43.97088 2812 ft 10 kts 234°
2026-04-26 13:26 -19.62797 -43.97177 2809 ft 20 kts 318°
2026-04-26 13:26 -19.62674 -43.97293 2809 ft 26 kts 318°
2026-04-26 13:26 -19.62542 -43.97416 2806 ft 27 kts 319°
2026-04-26 13:27 -19.62400 -43.97547 2803 ft 27 kts 319°
2026-04-26 13:27 -19.62298 -43.97643 2807 ft 11 kts 310°
2026-04-26 13:27 -19.62295 -43.97711 2807 ft 8 kts 229°
2026-04-26 13:27 -19.62340 -43.97760 2802 ft 13 kts 230°
2026-04-26 13:28 -19.62430 -43.97746 2805 ft 17 kts 140°
2026-04-26 13:28 -19.62619 -43.97569 2806 ft 73 kts 139°
2026-04-26 13:28 -19.63209 -43.97023 2810 ft 150 kts 139°
2026-04-26 13:28 -19.64136 -43.96158 3056 ft 193 kts 136°
2026-04-26 13:29 -19.65175 -43.95169 3856 ft 210 kts 137°
2026-04-26 13:29 -19.65904 -43.94477 4370 ft 212 kts 138°
2026-04-26 13:29 -19.67470 -43.93037 4869 ft 237 kts 139°
2026-04-26 13:29 -19.68786 -43.91834 5110 ft 261 kts 139°
2026-04-26 13:30 -19.70212 -43.90523 5645 ft 277 kts 137°
2026-04-26 13:30 -19.71404 -43.88899 6454 ft 283 kts 115°
2026-04-26 13:30 -19.71980 -43.86896 7319 ft 284 kts 103°
2026-04-26 13:30 -19.72428 -43.84858 8219 ft 284 kts 103°
2026-04-26 13:31 -19.72865 -43.82813 9121 ft 285 kts 103°
2026-04-26 13:31 -19.73301 -43.80755 10012 ft 286 kts 104°
2026-04-26 13:31 -19.73742 -43.78669 10524 ft 299 kts 104°
2026-04-26 13:31 -19.74221 -43.76433 10708 ft 322 kts 103°
2026-04-26 13:32 -19.74736 -43.74035 10850 ft 345 kts 103°
2026-04-26 13:32 -19.75288 -43.71474 10968 ft 367 kts 103°
2026-04-26 13:32 -19.75870 -43.68760 11112 ft 387 kts 103°
2026-04-26 13:32 -19.76472 -43.65936 11496 ft 396 kts 103°
2026-04-26 13:33 -19.77086 -43.63069 11993 ft 401 kts 103°
2026-04-26 13:33 -19.77710 -43.60162 12480 ft 406 kts 103°
2026-04-26 13:33 -19.78341 -43.57221 12967 ft 411 kts 103°
2026-04-26 13:33 -19.78976 -43.54245 13444 ft 415 kts 103°
2026-04-26 13:34 -19.79608 -43.51276 13901 ft 420 kts 103°
2026-04-26 13:34 -19.80262 -43.48196 14301 ft 424 kts 103°
2026-04-26 13:34 -19.80917 -43.45123 14707 ft 428 kts 103°
2026-04-26 13:34 -19.81353 -43.43075 14978 ft 431 kts 103°
2026-04-26 13:35 -19.82242 -43.38899 15507 ft 436 kts 103°
2026-04-26 13:35 -19.82912 -43.35743 15893 ft 440 kts 103°
2026-04-26 13:35 -19.83583 -43.32566 16293 ft 443 kts 103°
2026-04-26 13:35 -19.84259 -43.29365 16666 ft 446 kts 103°
2026-04-26 13:36 -19.84944 -43.26142 17022 ft 449 kts 103°
2026-04-26 13:36 -19.85634 -43.22901 17379 ft 452 kts 103°
2026-04-26 13:36 -19.86328 -43.19634 17725 ft 455 kts 102°
2026-04-26 13:36 -19.87023 -43.16347 18054 ft 458 kts 102°
2026-04-26 13:37 -19.87721 -43.13036 18358 ft 461 kts 102°
2026-04-26 13:37 -19.88414 -43.09749 18635 ft 463 kts 102°
2026-04-26 13:37 -19.89127 -43.06358 18937 ft 465 kts 102°
2026-04-26 13:37 -19.89829 -43.02999 19235 ft 467 kts 102°
2026-04-26 13:38 -19.90533 -42.99626 19511 ft 469 kts 102°
2026-04-26 13:38 -19.91244 -42.96241 19790 ft 471 kts 102°
2026-04-26 13:38 -19.91961 -42.92837 20056 ft 472 kts 102°
2026-04-26 13:38 -19.92680 -42.89435 20321 ft 474 kts 103°
2026-04-26 13:39 -19.93390 -42.86060 20581 ft 475 kts 102°
2026-04-26 13:39 -19.94120 -42.82578 20837 ft 476 kts 102°
2026-04-26 13:39 -19.94839 -42.79134 21075 ft 478 kts 102°
2026-04-26 13:39 -19.95562 -42.75677 21315 ft 479 kts 103°
2026-04-26 13:40 -19.96283 -42.72214 21545 ft 481 kts 102°
2026-04-26 13:40 -19.97005 -42.68742 21773 ft 482 kts 102°
2026-04-26 13:40 -19.97719 -42.65300 21984 ft 483 kts 102°
2026-04-26 13:40 -19.98454 -42.61763 22200 ft 485 kts 103°
2026-04-26 13:41 -19.99182 -42.58258 22403 ft 486 kts 102°
2026-04-26 13:41 -19.99907 -42.54751 22590 ft 487 kts 102°
2026-04-26 13:41 -20.00614 -42.51231 22785 ft 488 kts 101°
2026-04-26 13:41 -20.01225 -42.47726 22961 ft 489 kts 100°
2026-04-26 13:42 -20.01771 -42.44107 23142 ft 490 kts 98°
2026-04-26 13:42 -20.02268 -42.40518 23311 ft 491 kts 98°
2026-04-26 13:42 -20.02746 -42.36971 23465 ft 492 kts 98°
2026-04-26 13:42 -20.03239 -42.33367 23613 ft 493 kts 98°
2026-04-26 13:43 -20.03751 -42.29753 23727 ft 494 kts 99°
2026-04-26 13:43 -20.04288 -42.26090 23880 ft 495 kts 99°
2026-04-26 13:43 -20.04821 -42.22518 23995 ft 496 kts 99°
2026-04-26 13:43 -20.05379 -42.18896 24130 ft 497 kts 100°
2026-04-26 13:44 -20.06024 -42.15283 24251 ft 497 kts 102°
2026-04-26 13:44 -20.06759 -42.11638 24369 ft 497 kts 103°
2026-04-26 13:44 -20.07529 -42.08057 24562 ft 496 kts 103°
2026-04-26 13:44 -20.08297 -42.04531 24713 ft 496 kts 103°
2026-04-26 13:45 -20.09061 -42.00949 24880 ft 496 kts 103°
2026-04-26 13:45 -20.09800 -41.97371 25029 ft 495 kts 102°
2026-04-26 13:45 -20.10286 -41.94956 25065 ft 494 kts 102°
2026-04-26 13:45 -20.11222 -41.90219 25079 ft 493 kts 102°
2026-04-26 13:46 -20.11921 -41.86648 25078 ft 493 kts 102°
2026-04-26 13:46 -20.12621 -41.83074 25076 ft 493 kts 102°
2026-04-26 13:46 -20.13325 -41.79495 25076 ft 495 kts 102°
2026-04-26 13:46 -20.13805 -41.77066 25076 ft 498 kts 102°
2026-04-26 13:47 -20.14523 -41.73456 25078 ft 500 kts 102°
2026-04-26 13:47 -20.15246 -41.69827 25075 ft 503 kts 102°
2026-04-26 13:47 -20.15968 -41.66182 25073 ft 504 kts 102°
2026-04-26 13:47 -20.16689 -41.62528 25073 ft 505 kts 102°
2026-04-26 13:48 -20.17411 -41.58868 25071 ft 506 kts 102°
2026-04-26 13:48 -20.18134 -41.55204 25077 ft 505 kts 102°
2026-04-26 13:48 -20.18852 -41.51558 24883 ft 504 kts 102°
2026-04-26 13:48 -20.19570 -41.47902 24656 ft 505 kts 102°
2026-04-26 13:49 -20.20289 -41.44237 24435 ft 506 kts 102°
2026-04-26 13:49 -20.21010 -41.40575 24212 ft 504 kts 102°
2026-04-26 13:49 -20.21726 -41.36923 23657 ft 503 kts 102°
2026-04-26 13:49 -20.22436 -41.33278 22424 ft 502 kts 102°
2026-04-26 13:50 -20.23138 -41.29678 21679 ft 492 kts 102°
2026-04-26 13:50 -20.23833 -41.26125 20778 ft 488 kts 102°
2026-04-26 13:50 -20.24522 -41.22609 19953 ft 483 kts 102°
2026-04-26 13:50 -20.25203 -41.19127 19188 ft 478 kts 102°
2026-04-26 13:51 -20.25873 -41.15683 18448 ft 473 kts 102°
2026-04-26 13:51 -20.26537 -41.12270 17647 ft 468 kts 102°
2026-04-26 13:51 -20.27192 -41.08895 16907 ft 463 kts 102°
2026-04-26 13:51 -20.27838 -41.05556 16196 ft 458 kts 102°
2026-04-26 13:52 -20.28475 -41.02252 15534 ft 452 kts 102°
2026-04-26 13:52 -20.29103 -40.98995 14878 ft 447 kts 102°
2026-04-26 13:52 -20.29726 -40.95767 14231 ft 442 kts 102°
2026-04-26 13:52 -20.30343 -40.92585 13625 ft 436 kts 102°
2026-04-26 13:53 -20.30949 -40.89448 12993 ft 429 kts 103°
2026-04-26 13:53 -20.31539 -40.86401 12562 ft 419 kts 103°
2026-04-26 13:53 -20.32117 -40.83391 12426 ft 400 kts 102°
2026-04-26 13:53 -20.32660 -40.80546 12296 ft 383 kts 103°
2026-04-26 13:54 -20.33178 -40.77822 12167 ft 368 kts 103°
2026-04-26 13:54 -20.33677 -40.75206 12046 ft 353 kts 102°
2026-04-26 13:54 -20.34152 -40.72722 11914 ft 341 kts 103°
2026-04-26 13:55 -20.35059 -40.68001 11521 ft 308 kts 103°
2026-04-26 13:55 -20.35346 -40.66505 11159 ft 303 kts 103°
2026-04-26 13:55 -20.36313 -40.61493 9864 ft 291 kts 103°
2026-04-26 13:56 -20.36714 -40.59399 9418 ft 287 kts 103°
2026-04-26 13:56 -20.37112 -40.57320 9044 ft 286 kts 103°
2026-04-26 13:56 -20.37510 -40.55248 8651 ft 284 kts 103°
2026-04-26 13:56 -20.37905 -40.53189 8274 ft 284 kts 103°
2026-04-26 13:57 -20.38296 -40.51133 7900 ft 282 kts 103°
2026-04-26 13:57 -20.38684 -40.49086 7527 ft 281 kts 103°
2026-04-26 13:57 -20.39069 -40.47047 7153 ft 281 kts 103°
2026-04-26 13:57 -20.39458 -40.45007 6772 ft 281 kts 103°
2026-04-26 13:58 -20.39845 -40.42980 6404 ft 280 kts 103°
2026-04-26 13:58 -20.40235 -40.40947 6013 ft 280 kts 103°
2026-04-26 13:58 -20.40624 -40.38919 5638 ft 279 kts 103°
2026-04-26 13:58 -20.41009 -40.36894 5235 ft 279 kts 102°
2026-04-26 13:59 -20.41387 -40.34886 4884 ft 271 kts 102°
2026-04-26 13:59 -20.41748 -40.32952 4532 ft 261 kts 102°
2026-04-26 13:59 -20.42095 -40.31102 4192 ft 249 kts 102°
2026-04-26 14:00 -20.41021 -40.26465 3254 ft 215 kts 28°
2026-04-26 14:00 -20.39650 -40.25980 2912 ft 205 kts
2026-04-26 14:00 -20.38725 -40.26046 2741 ft 200 kts 349°
2026-04-26 14:01 -20.36907 -40.26324 2284 ft 193 kts 350°
2026-04-26 14:01 -20.35598 -40.26519 1975 ft 187 kts 352°
2026-04-26 14:01 -20.34330 -40.26709 1688 ft 183 kts 351°
2026-04-26 14:01 -20.33085 -40.26894 1397 ft 176 kts 351°
2026-04-26 14:02 -20.31932 -40.27064 1178 ft 159 kts 351°
2026-04-26 14:02 -20.30886 -40.27217 953 ft 145 kts 352°
2026-04-26 14:02 -20.29902 -40.27367 723 ft 140 kts 351°
2026-04-26 14:02 -20.28939 -40.27517 549 ft 139 kts 353°
2026-04-26 14:03 -20.27985 -40.27647 351 ft 138 kts 354°
2026-04-26 14:03 -20.27029 -40.27785 161 ft 140 kts 352°
2026-04-26 14:03 -20.26098 -40.27919 39 ft 124 kts 352°
2026-04-26 14:03 -20.25489 -40.28011 26 ft 38 kts 352°
2026-04-26 14:04 -20.25243 -40.28054 22 ft 14 kts 328°
2026-04-26 14:04 -20.25269 -40.28126 21 ft 11 kts 213°
2026-04-26 14:04 -20.25312 -40.28156 21 ft 11 kts 213°